Starlink 11427

operational
NORAD ID: 62063 Int'l Des: 2024-217 Owner: SPXS Country: US Constellation: starlink
LEOCIRCULAR

关于 Starlink 11427

正在加载描述...

实时位置

正在加载3D地球...

即将过境

高度历史

Altitude vs Time

uPlot chart will show altitude changes over time

两行轨道根数

1 62063U 24217G 25350.61831738 .00170915 00000-0 13847-2 0 9993
2 62063 53.1567 120.9599 0000803 55.3853 304.7241 15.69745054 62129
Epoch: Dec 16, 2025 • Age: 22 hours

当前状态

高度 359.2 km
速度 7.70 km/s
星下点 18.66°N, 2.05°E
发射日期 Nov 24, 2024
运行时间 1 years
类型 internet

技术详情

分类 Payload
质量 960.00 kg
干质量 910.00 kg
总质量 960.00 kg
长度 0.30 m
直径 4.10 m
跨度 29.00 m
形状 Box + pan
制造商 SPXS
平台类型 Starlink V2MD
阶段状态 In Orbit
所有者/国家 SPXS/US

大型星座

Loading constellations...